{"data":{"norad_id":56117,"intl_designator":"2023-046AA","name":"STARLINK-6107","alt_names":[],"object_type":"PAYLOAD","status":"ACTIVE","operator":null,"country":"US","launch_date":"2023-03-29","launch_site_code":"AFETR","launch_vehicle":null,"mission":null,"orbit_class":"UNKNOWN","rcs_meters":null,"size_class":null,"mass_kg":null,"dimensions":null,"purposes":["comms"],"wikipedia_slug":null,"has_3d_model":false,"image_url":null,"decayed_at":null,"tle_current":{"epoch":"2026-05-25T03:48:39.280608Z","epoch_age_seconds":61654,"freshness":"FRESH","line1":"1 56117U 23046AA  26145.15878797  .00000081  00000+0  12477-4 0  9998","line2":"2 56117  43.0032  75.2631 0001198 266.5751  93.4964 15.27577999173893","mean_motion":15.27577999,"eccentricity":0.0001198,"inclination_deg":43.0032,"raan_deg":75.2631,"arg_perigee_deg":266.5751,"mean_anomaly_deg":93.4964,"bstar":1.2477e-5,"rev_number":17389,"period_min":94.266872195244,"perigee_km":482.23311694794,"apogee_km":483.87705857216,"semimajor_km":6861.19208776,"source":"CELESTRAK","updated_at":"2026-05-25T13:38:17.957694Z"}}}